• Join FlightAware (Why Join?)
  • Login
  • US Flag 
02:54AM EDT


 

Airport Tracker/Info


-or-


 

Live Flight TrackerFlight Track Log ✈ CTL13 ✈ 15-Apr-2013 ✈ KBKL - KEYE

Flight Track Log - Related Links

Times and Time Zones

All times are in EDT time to prevent confusion due to time zone crossing. See the CTL13 flight status page for this flight to view local times or setup timezone preferences in your user account.

Time Position Orientation Groundspeed Altitude Reporting Facility
EDT Latitude Longitude Course Direction KTS MPH feet Rate Location/Type
06:39PM 41.5106 -81.7033 309° West 136 157 1,000  Level Cleveland Center
06:40PM 41.5411 -81.7539 309° West 153 176 2,200 960 Climbing Cleveland Center
06:41PM 41.5447 -81.8094 275° West 127 146 3,300 900 Climbing Cleveland Center
06:42PM 41.5319 -81.8425 243° Southwest 122 140 4,000 720 Climbing Cleveland Center
06:43PM 41.5189 -81.8839 247° West 128 147 4,700 660 Climbing Cleveland Center
06:44PM 41.5019 -81.9250 241° Southwest 126 145 5,400 540 Climbing Cleveland Center
06:45PM 41.4783 -81.9772 239° Southwest 123 142 6,000 540 Climbing Cleveland Center
06:46PM 41.4653 -82.0186 247° West 124 143 6,600 540 Climbing Cleveland Center
06:48PM 41.4350 -82.0953 242° Southwest 127 146 7,600 420 Climbing Cleveland Center
06:49PM 41.4156 -82.1419 241° Southwest 133 153 8,000 60 Climbing Cleveland Center
06:51PM 41.3758 -82.2528 245° Southwest 147 169 7,900 -60 Descending Indianapolis Center
06:52PM 41.3594 -82.2994 245° Southwest 140 161 7,900  Level Indianapolis Center
06:53PM 41.3422 -82.3442 243° Southwest 136 157 8,000  Climbing Indianapolis Center
06:55PM 41.3239 -82.3914 243° Southwest 140 161 7,900  Descending Indianapolis Center
06:56PM 41.3061 -82.4392 244° Southwest 143 165 8,000  Climbing Indianapolis Center
06:57PM 41.2881 -82.4861 243° Southwest 142 163 7,900  Descending Indianapolis Center
06:58PM 41.2714 -82.5350 246° West 143 165 8,000  Climbing Indianapolis Center
06:59PM 41.2503 -82.5886 242° Southwest 141 162 7,900 -60 Descending Indianapolis Center
07:00PM 41.2314 -82.6364 242° Southwest 144 166 7,900  Level Indianapolis Center
07:01PM 41.2144 -82.6842 245° Southwest 143 165 8,000  Climbing Indianapolis Center
07:02PM 41.1967 -82.7311 243° Southwest 141 162 7,900 -60 Descending Indianapolis Center
07:03PM 41.1783 -82.7808 244° Southwest 147 169 7,900  Level Indianapolis Center
07:04PM 41.1606 -82.8283 244° Southwest 143 165 7,900  Level Indianapolis Center
07:05PM 41.1431 -82.8767 244° Southwest 144 166 7,900  Level Indianapolis Center
07:06PM 41.1233 -82.9250 242° Southwest 147 169 7,900  Level Indianapolis Center
07:07PM 41.1044 -82.9747 243° Southwest 148 170 7,900  Level Indianapolis Center
07:08PM 41.0853 -83.0339 247° West 149 171 7,900  Level Indianapolis Center
07:09PM 41.0650 -83.0825 241° Southwest 149 171 7,900  Level Indianapolis Center
07:10PM 41.0458 -83.1325 243° Southwest 150 173 7,900  Level Indianapolis Center
07:11PM 41.0264 -83.1811 242° Southwest 150 173 7,900  Level Indianapolis Center
07:12PM 41.0081 -83.2294 243° Southwest 147 169 7,900  Level Indianapolis Center
07:13PM 40.9906 -83.2769 244° Southwest 144 166 7,900  Level Indianapolis Center
07:14PM 40.9717 -83.3242 242° Southwest 144 166 7,900  Level Indianapolis Center
07:15PM 40.9533 -83.3686 241° Southwest 139 160 7,900  Level Indianapolis Center
07:16PM 40.9358 -83.4119 242° Southwest 135 155 7,900  Level Indianapolis Center
07:17PM 40.9144 -83.4622 241° Southwest 133 153 7,900  Level Indianapolis Center
07:18PM 40.8961 -83.5078 242° Southwest 136 157 7,900  Level Indianapolis Center
07:19PM 40.8778 -83.5519 241° Southwest 136 157 7,900  Level Indianapolis Center
07:20PM 40.8606 -83.5967 243° Southwest 136 157 7,900  Level Indianapolis Center
07:21PM 40.8408 -83.6400 239° Southwest 136 157 7,900  Level Indianapolis Center
07:22PM 40.8236 -83.6822 242° Southwest 132 152 7,900  Level Indianapolis Center
07:23PM 40.8056 -83.7228 240° Southwest 128 147 7,900  Level Indianapolis Center
07:24PM 40.7883 -83.7642 241° Southwest 127 146 7,900  Level Indianapolis Center
07:25PM 40.7719 -83.8036 241° Southwest 124 143 8,000  Climbing Indianapolis Center
07:26PM 40.7550 -83.8450 242° Southwest 125 144 8,000 -60 Level Indianapolis Center
07:27PM 40.7356 -83.8944 243° Southwest 128 147 7,900  Descending Indianapolis Center
07:28PM 40.7192 -83.9361 243° Southwest 128 147 8,000  Climbing Indianapolis Center
07:29PM 40.7025 -83.9789 243° Southwest 128 147 7,900 -60 Descending Indianapolis Center
07:31PM 40.6881 -84.0200 245° Southwest 127 146 7,900  Level Indianapolis Center
07:32PM 40.6717 -84.0633 244° Southwest 128 147 8,000  Climbing Indianapolis Center
07:33PM 40.6550 -84.1097 245° Southwest 130 150 8,000  Level Indianapolis Center
07:33PM 40.6442 -84.1414 246° West 131 151 8,000  Level Indianapolis Center
07:34PM 40.6403 -84.1503 240° Southwest 130 150 8,000  Level Indianapolis Center
07:35PM 40.6231 -84.1964 244° Southwest 130 150 8,000  Level Indianapolis Center
07:35PM 40.6122 -84.2278 246° West 134 154 8,000  Level Indianapolis Center
07:36PM 40.6067 -84.2467 249° West 133 153 8,000  Level Indianapolis Center
07:36PM 40.5936 -84.2775 241° Southwest 139 160 8,000  Level Indianapolis Center
07:37PM 40.5889 -84.2928 248° West 135 155 8,000 -120 Level Indianapolis Center
07:37PM 40.5778 -84.3194 241° Southwest 135 155 7,900 -120 Descending Indianapolis Center
07:38PM 40.5719 -84.3378 247° West 136 157 7,900 60 Level Indianapolis Center
07:38PM 40.5594 -84.3664 240° Southwest 139 160 8,000  Climbing Indianapolis Center
07:39PM 40.5539 -84.3833 247° West 138 159 7,900 -120 Descending Indianapolis Center
07:40PM 40.5406 -84.4214 245° Southwest 139 160 7,900  Level Indianapolis Center
07:40PM 40.5381 -84.4311 251° West 139 160 7,900 60 Level Indianapolis Center
07:41PM 40.5242 -84.4686 244° Southwest 138 159 8,000  Climbing Indianapolis Center
07:41PM 40.5225 -84.4761 254° West 138 159 7,900  Descending Indianapolis Center
07:41PM 40.5103 -84.5106 245° Southwest 137 158 8,000 60 Climbing Indianapolis Center
07:42PM 40.5058 -84.5208 240° Southwest 136 157 8,000 -120 Level Indianapolis Center
07:43PM 40.4917 -84.5575 243° Southwest 136 157 7,900  Descending Indianapolis Center
07:43PM 40.4892 -84.5664 250° West 136 157 8,000  Climbing Indianapolis Center
07:43PM 40.4756 -84.6019 243° Southwest 147 169 7,900 -120 Descending Indianapolis Center
07:44PM 40.4722 -84.6119 246° West 137 158 7,900  Level Indianapolis Center
07:44PM 40.4536 -84.6400 229° Southwest 140 161 7,900 60 Level Indianapolis Center
07:45PM 40.4419 -84.6575 229° Southwest 139 160 8,000  Climbing Indianapolis Center
07:45PM 40.4275 -84.6775 227° Southwest 140 161 7,900 -120 Descending Indianapolis Center
07:46PM 40.4133 -84.6931 220° Southwest 141 162 7,900  Level Indianapolis Center
07:46PM 40.3994 -84.7119 226° Southwest 142 163 7,900  Level Indianapolis Center
07:47PM 40.3864 -84.7297 226° Southwest 141 162 7,900  Level Indianapolis Center
07:47PM 40.3711 -84.7492 224° Southwest 141 162 7,900 60 Level Indianapolis Center
07:48PM 40.3592 -84.7675 229° Southwest 140 161 8,000 60 Climbing Indianapolis Center
07:49PM 40.3406 -84.7886 221° Southwest 142 163 8,000  Level Indianapolis Center
07:49PM 40.3300 -84.8044 229° Southwest 142 163 8,000 -120 Level Indianapolis Center
07:50PM 40.3144 -84.8258 226° Southwest 146 168 7,900  Descending Indianapolis Center
07:50PM 40.3019 -84.8442 228° Southwest 145 167 8,000  Climbing Indianapolis Center
07:51PM 40.2858 -84.8656 225° Southwest 144 166 7,900 -120 Descending Indianapolis Center
07:51PM 40.2739 -84.8825 227° Southwest 144 166 7,900 60 Level Indianapolis Center
07:52PM 40.2578 -84.9028 224° Southwest 143 165 8,000  Climbing Indianapolis Center
07:52PM 40.2442 -84.9197 224° Southwest 146 168 7,900  Descending Indianapolis Center
07:53PM 40.2314 -84.9400 230° Southwest 145 167 8,000 60 Climbing Indianapolis Center
07:53PM 40.2181 -84.9569 224° Southwest 143 165 8,000 -120 Level Indianapolis Center
07:54PM 40.2031 -84.9769 226° Southwest 142 163 7,900 -120 Descending Indianapolis Center
07:54PM 40.1914 -84.9967 232° Southwest 143 165 7,900  Level Indianapolis Center
07:55PM 40.1592 -85.0428 228° Southwest 144 166 7,900  Level Indianapolis Center
07:56PM 40.1306 -85.0794 224° Southwest 144 166 8,000 120 Climbing Indianapolis Center
07:57PM 40.1244 -85.0883 228° Southwest 142 163 8,100 60 Climbing Indianapolis Center
07:57PM 40.1136 -85.1236 248° West 142 163 8,100  Level Indianapolis Center
07:58PM 40.1031 -85.1742 255° West 143 165 8,100 -60 Level Indianapolis Center
07:59PM 40.0889 -85.2244 250° West 143 165 8,000 -360 Descending Indianapolis Center
08:00PM 40.0772 -85.2789 254° West 149 171 7,400 -600 Descending Indianapolis Center
08:01PM 40.0628 -85.3369 252° West 158 182 6,800 -540 Descending Indianapolis Center
08:02PM 40.0508 -85.3942 255° West 163 188 6,400 -360 Descending Indianapolis Center
08:04PM 40.0333 -85.4833 256° West 155 178 6,000 -180 Descending Indianapolis TRACON
08:05PM 40.0167 -85.5333 246° West 145 167 6,000  Level Indianapolis TRACON
08:06PM 40.0000 -85.5833 246° West 147 169 6,000  Level Indianapolis TRACON
08:07PM 39.9833 -85.6333 247° West 146 168 6,000  Level Indianapolis TRACON
08:08PM 39.9833 -85.7000 270° West 146 168 6,000 -120 Level Indianapolis TRACON
08:09PM 39.9667 -85.7500 247° West 149 171 5,800 -420 Descending Indianapolis TRACON
08:10PM 39.9500 -85.8000 247° West 164 189 5,200 -600 Descending Indianapolis TRACON
08:11PM 39.9333 -85.8667 252° West 168 193 4,700 -540 Descending Indianapolis TRACON
08:12PM 39.9167 -85.9167 247° West 164 189 4,200 -540 Descending Indianapolis TRACON
08:13PM 39.9000 -85.9667 247° West 166 191 3,700 -600 Descending Indianapolis TRACON
08:14PM 39.8833 -86.0333 252° West 164 189 3,000 -600 Descending Indianapolis TRACON
08:15PM 39.8833 -86.0833 270° West 161 185 2,500 -540 Descending Indianapolis TRACON